Location: Fort Worth, Tx
(32.7431°N, 97.3695°W)
Time: 12:55:42
(UTC-05:00)

Explorer 7 - All Passes

Search period start: 30 January 2023 00:00
Search period end: 09 February 2023 00:00
Orbit: 480 x 660 km, 50.3° (Epoch: 30 January)

Date Brightness Start Highest point End Pass type
(mag) Time Alt. Az. Time Alt. Az. Time Alt. Az.
30 Jan - 12:37:41 10° S 12:40:28 18° SE 12:43:21 10° E daylight
30 Jan - 14:16:24 10° WSW 14:20:23 49° NW 14:24:38 10° NE daylight
30 Jan - 15:59:35 10° NW 16:01:35 13° NNW 16:03:38 10° N daylight
30 Jan - 19:22:53 10° NNW 19:25:44 16° NNE 19:28:37 10° ENE visible
30 Jan - 21:02:05 10° NW 21:06:48 63° NE 21:11:33 10° ESE visible
30 Jan - 22:43:30 10° W 22:46:47 19° SW 22:50:05 10° S visible
31 Jan - 12:37:46 10° SSW 12:41:16 30° SE 12:44:58 10° ENE daylight
31 Jan - 14:17:46 10° W 14:21:29 32° NNW 14:25:25 10° NNE daylight
31 Jan - 16:02:14 10° NNW 16:02:57 10° NNW 16:03:41 10° N daylight
31 Jan - 19:23:31 10° NNW 19:27:00 20° NNE 19:30:32 10° ENE visible
31 Jan - 21:03:02 10° NW 21:07:48 85° SW 21:12:36 10° SE visible
31 Jan - 22:46:12 10° WSW 22:47:34 11° SW 22:48:56 10° SW visible
01 Feb - 12:38:17 10° SSW 12:42:08 52° SE 12:46:14 10° ENE daylight
01 Feb - 14:19:20 10° W 14:22:39 23° NNW 14:26:07 10° NNE daylight
01 Feb - 19:24:11 10° NNW 19:28:11 27° NNE 19:32:15 10° E visible
01 Feb - 21:04:06 10° WNW 21:08:43 54° SW 21:13:23 10° SSE visible
02 Feb - 12:39:06 10° SW 12:43:03 89° SSE 12:47:17 10° NE daylight
02 Feb - 14:21:07 10° WNW 14:23:52 17° NNW 14:26:44 10° NNE daylight
02 Feb - 17:46:20 10° N 17:47:55 12° NNE 17:49:32 10° NE daylight
02 Feb - 19:24:57 10° NNW 19:29:17 37° NE 19:33:44 10° ESE visible
02 Feb - 21:05:20 10° WNW 21:09:35 33° SW 21:13:53 10° SSE visible
03 Feb - 11:01:57 10° SSE 11:04:14 15° SE 11:06:34 10° E daylight
03 Feb - 12:40:10 10° WSW 12:44:02 55° NW 12:48:11 10° NE daylight
03 Feb - 14:23:10 10° NW 14:25:08 13° NNW 14:27:09 10° N daylight
03 Feb - 17:46:44 10° N 17:49:13 14° NNE 17:51:46 10° NE daylight
03 Feb - 19:25:44 10° NW 19:30:20 56° NE 19:35:02 10° ESE visible
03 Feb - 21:06:50 10° W 21:10:24 21° SW 21:13:58 10° S visible
04 Feb - 11:01:47 10° S 11:04:59 25° SE 11:08:21 10° ENE daylight
04 Feb - 12:41:26 10° WSW 12:45:05 35° NW 12:48:58 10° NNE daylight
04 Feb - 14:25:53 10° NNW 14:26:27 10° NNW 14:27:01 10° N daylight
04 Feb - 17:47:16 10° NNW 17:50:27 18° NNE 17:53:44 10° ENE daylight
04 Feb - 19:26:38 10° NW 19:31:18 85° NE 19:36:06 10° SE visible
04 Feb - 21:09:02 10° W 21:11:10 13° SW 21:13:17 10° SSW visible
05 Feb - 11:02:09 10° SSW 11:05:48 43° SE 11:09:40 10° ENE daylight
05 Feb - 12:42:55 10° W 12:46:12 24° NNW 12:49:38 10° NNE daylight
05 Feb - 17:47:54 10° NNW 17:51:37 24° NNE 17:55:28 10° E daylight
05 Feb - 19:27:36 10° NW 19:32:13 61° SW 19:36:55 10° SE visible
06 Feb - 11:02:50 10° SW 11:06:40 77° SE 11:10:43 10° NE daylight
06 Feb - 12:44:38 10° WNW 12:47:21 17° NNW 12:50:12 10° NNE daylight
06 Feb - 16:10:34 10° N 16:11:19 10° NNE 16:12:05 10° NNE daylight
06 Feb - 17:48:34 10° NNW 17:52:42 33° NE 17:56:59 10° E daylight
06 Feb - 19:28:45 10° WNW 19:33:04 38° SW 19:37:27 10° SSE visible
07 Feb - 09:26:16 10° SSE 09:27:52 12° SE 09:29:29 10° E daylight
07 Feb - 11:03:47 10° WSW 11:07:35 62° NW 11:11:37 10° NE daylight
07 Feb - 12:46:36 10° NW 12:48:34 13° NNW 12:50:35 10° N daylight
07 Feb - 16:10:33 10° N 16:12:36 13° NNE 16:14:39 10° NE daylight
07 Feb - 17:49:18 10° NW 17:53:44 49° NE 17:58:18 10° ESE daylight
07 Feb - 19:30:07 10° WNW 19:33:51 24° SW 19:37:38 10° S visible
08 Feb - 09:25:40 10° S 09:28:35 21° SE 09:31:34 10° ENE daylight
08 Feb - 11:04:58 10° WSW 11:08:35 38° NW 11:12:23 10° NNE daylight
08 Feb - 12:49:22 10° NNW 12:49:50 10° NNW 12:50:17 10° N daylight
08 Feb - 16:10:58 10° NNW 16:13:48 16° NNE 16:16:43 10° ENE daylight
08 Feb - 17:50:07 10° NW 17:54:40 75° NE 17:59:24 10° SE daylight
08 Feb - 19:32:01 10° W 19:34:35 15° SW 19:37:12 10° SSW visible
